Regional Weather Roundup
Issued by NWS State College, PA

Home | Current Version | Previous Version | Graphics & Text | Print | Product List | Glossary Off
Versions: 1 2 3 4 5 6 7 8 9 10 11 12 13 14 15 16 17 18 19 20 21 22 23 24 25 26 27 28 29 30 31 32 33 34 35 36 37 38 39 40 41 42 43 44 45 46 47 48 49 50

000
ASUS41 KCTP 170303
RWRCTP

REGIONAL WEATHER ROUNDUP
NATIONAL WEATHER SERVICE STATE COLLEGE PA
1100 PM EDT WED AUG 16 2017

Note: "fair" indicates few or no clouds below 12,000 feet with no
significant weather and/or obstructions to visibility.

* = STATION THAT DOES NOT REPORT PRECIPITATION /E.G. RAIN...SNOW...ETC/
    THUNDER OR FOG.

PAZ002>004-007>009-013>016-020>023-029>032-170400-
WESTERN PENNSYLVANIA

CITY           SKY/WX    TMP DP  RH WIND       PRES   REMARKS
ERIE           CLEAR     65  58  78 S3        30.06R
MEADVILLE      PTCLDY    65  57  75 CALM      30.09R
FRANKLIN*      CLEAR     63  54  72 CALM      30.10R
NEW CASTLE     FAIR      64  60  87 CALM      30.07S
BEAVER COUNTY  NOT AVBL
BUTLER*        PTCLDY    64  61  88 CALM      30.08R
PITTSBURGH INT PTCLDY    73  61  65 E3        30.06S
PITTSBURGH     PTCLDY    75  57  53 CALM      30.07R
INDIANA*       CLEAR     64  61  88 CALM      30.11S
LATROBE        CLEAR     64  64 100 CALM      30.09S
WASHINGTON CO* CLEAR     64  63  94 CALM      30.07S
$$

PAZ004>006-010>012-017>019-024>028-033>037-041-042-045-046-049>053-170400-
CENTRAL PENNSYLVANIA

CITY           SKY/WX    TMP DP  RH WIND       PRES   REMARKS
BRADFORD       CLEAR     58  57  97 CALM      30.11R
DUBOIS         CLEAR     62  54  74 CALM      30.09R
CLEARFIELD     CLEAR     64  58  80 CALM      30.10R
JOHNSTOWN      CLEAR     71  56  58 CALM      30.13R
ALTOONA        CLEAR     61  61 100 CALM      30.10R
STATE COLLEGE  PTCLDY    67  61  80 CALM      30.08R
WILLIAMSPORT   CLEAR     67  63  87 CALM      30.04R
SELINSGROVE    CLEAR     65  65 100 CALM      30.05R
FT INDIANTOWN  CLEAR     66  66 100 CALM      30.04R
CAPITAL CITY   CLEAR     69  62  78 CALM      30.03R
HARRISBURG     CLEAR     71  68  90 CALM      30.02R
YORK           CLEAR     66  66 100 CALM      30.04R
$$

PAZ038>040-043-044-047-048-054-055-060>062-067>071-170400-
EASTERN PENNSYLVANIA

CITY           SKY/WX    TMP DP  RH WIND       PRES   REMARKS
SCRANTON       PTCLDY    65  59  81 E7        30.08R
MOUNT POCONO   CLEAR     57  57 100 N5        30.11R
ALLENTOWN      PTCLDY    71  64  78 N3        30.04R
QUAKERTOWN*    CLEAR     66  66 100 MISG      30.06R
READING        CLEAR     71  69  93 CALM      30.03R
LANCASTER      CLEAR     68  66  93 CALM      30.04R
COATESVILLE    CLEAR     68  64  88 CALM      30.06S
POTTSTOWN      CLEAR     67  66  97 CALM      30.05R
BLUE BELL      PTCLDY    64  64 100 CALM      30.05R
DOYLESTOWN     CLEAR     68  67  96 CALM      30.03R
WILLOW GROVE   NOT AVBL
NORTH PHILA    CLEAR     73  65  75 CALM      30.04R
PHILADELPHIA   PTCLDY    77  67  71 CALM      30.02R
$$




USA.gov is the U.S. government's official web portal to all federal, state and local government web resources and services.